Regional Weather Roundup
Issued by NWS

Home | Current Version | Previous Version | Text Only | Print | Product List | Glossary Off
Versions: 1 2 3 4 5 6 7 8 9 10 11 12 13 14 15 16 17 18 19 20 21 22 23 24 25 26 27 28 29 30 31 32 33 34 35 36 37 38 39 40 41 42 43 44 45 46 47 48 49 50

000
ASUS43 KTOP 301208
RWRKS

WEATHER ROUNDUP FOR KANSAS
NATIONAL WEATHER SERVICE GOODLAND KS
700 AM CDT MON MAY 30 2016

NOTE:  "FAIR" INDICATES FEW OR NO CLOUDS BELOW 12,000 FEET WITH NO
SIGNIFICANT WEATHER AND/OR OBSTRUCTIONS TO VISIBILITY.

KSZ001>006-013>018-027>032-041>047-301300-
NORTHWEST KANSAS

CITY           SKY/WX    TMP DP  RH WIND       PRES   REMARKS
GOODLAND       CLEAR     56  49  77 SW8       30.00F
6HR MIN TEMP:  54; 6HR MAX TEMP:  60; 6HR PCP: TRACE;

HAYS           CLEAR     55  46  71 SW8       30.01R
HILL CITY      CLEAR     52  50  93 MISG      30.00R
6HR MIN TEMP:  51; 6HR MAX TEMP:  64;

$$

KSZ061>065-074>080-084>089-301300-
SOUTHWEST KANSAS

CITY           SKY/WX    TMP DP  RH WIND       PRES   REMARKS
DODGE CITY     CLEAR     54  51  90 SW5       30.04F
6HR MIN TEMP:  52; 6HR MAX TEMP:  58;

ELKHART          N/A     48  46  93 S8          N/A
GARDEN CITY    CLEAR     50  47  89 S7        30.03F
6HR MIN TEMP:  48; 6HR MAX TEMP:  58;

GREAT BEND     CLEAR     59  48  67 SW7       30.02S
LIBERAL        CLEAR     48  45  87 S6        30.08R
PRATT          CLEAR     54  50  84 SW6       30.04F
6HR MIN TEMP:  52; 6HR MAX TEMP:  62;

$$

KSZ066>073-081>083-090>101-301300-
SOUTHEAST KANSAS

CITY           SKY/WX    TMP DP  RH WIND       PRES   REMARKS
CHANUTE        PTCLDY    65  62  90 SE7       30.04R
6HR MIN TEMP:  64; 6HR MAX TEMP:  67;

COFFEYVILLE    CLOUDY    64  62  93 CALM      30.04R
6HR MIN TEMP:  63; 6HR MAX TEMP:  66;

HUTCHINSON     PTCLDY    62  58  86 NW3       30.02F
6HR MIN TEMP:  60; 6HR MAX TEMP:  66;

MEDICINE LODGE   N/A     58  54  86 SE7       30.03F
NEWTON         PTCLDY    63  57  82 S3        30.06R
PARSONS        MOCLDY    65  63  93 CALM      30.05R
6HR MIN TEMP:  61; 6HR MAX TEMP:  65;

WICHITA INTL   MOCLDY    63  58  83 SW5       30.03R
6HR MIN TEMP:  63; 6HR MAX TEMP:  69; 6HR PCP: TRACE;

WICHITA JABRA  CLOUDY    63  61  93 SW7       30.04R
6HR MIN TEMP:  59; 6HR MAX TEMP:  63;

WICHITA MCCONL PTCLDY    63  60  91 W3        30.04R
WINFIELD       CLOUDY    64  62  93 S5        30.04S
6HR MIN TEMP:  62; 6HR MAX TEMP:  69;

$$

KSZ007>012-019>026-033>040-048>060-102>105-301300-
NORTHEAST KANSAS

CITY           SKY/WX    TMP DP  RH WIND       PRES   REMARKS
CONCORDIA      CLOUDY    63  58  83 S6        30.02R
6HR MIN TEMP:  62; 6HR MAX TEMP:  65;

EMPORIA        MOCLDY    62  61  96 SE6       30.04R
6HR MIN TEMP:  60; 6HR MAX TEMP:  65;

LAWRENCE       SUNNY     63  61  93 CALM      30.05R
6HR MIN TEMP:  59; 6HR MAX TEMP:  63;

MANHATTAN      CLEAR     61  58  90 CALM      30.02R
6HR MIN TEMP:  58; 6HR MAX TEMP:  65;

MARYSVILLE     CLEAR     61  59  94 S6        30.02R
OLATHE IND     SUNNY     65  63  93 CALM      30.06R
6HR MIN TEMP:  61; 6HR MAX TEMP:  66;

OLATHE EXE     SUNNY     66  63  90 CALM      30.06R
6HR MIN TEMP:  61; 6HR MAX TEMP:  67;

SALINA         CLEAR     60  58  92 SE6       30.02S
6HR MIN TEMP:  58; 6HR MAX TEMP:  67;

TOPEKA BILLARD CLEAR     64  62  93 CALM      30.04R
6HR MIN TEMP:  61; 6HR MAX TEMP:  68;

TOPEKA FORBES  MOCLDY    63  62  97 E3        30.04R FOG
6HR MIN TEMP:  60; 6HR MAX TEMP:  66;

$$



USA.gov is the U.S. government's official web portal to all federal, state and local government web resources and services.